TimeHST,TemperatureF,Dew PointF,Humidity,Sea Level PressureIn,VisibilityMPH,Wind Direction,Wind SpeedMPH,Gust SpeedMPH,PrecipitationIn,Events,Conditions,WindDirDegrees,DateUTC
12:56 AM,73.0,66.0,79,30.02,10.0,Calm,Calm,-,N/A,,Overcast,0,2013-03-24 10:56:00
1:56 AM,72.0,66.9,84,30.00,10.0,East,3.5,-,N/A,,Mostly Cloudy,100,2013-03-24 11:56:00
2:56 AM,73.0,64.9,76,29.98,10.0,Calm,Calm,-,N/A,,Overcast,0,2013-03-24 12:56:00
3:41 AM,73.4,64.4,73,29.97,10.0,Calm,Calm,-,N/A,,Overcast,0,2013-03-24 13:41:00
3:56 AM,73.9,68.0,82,29.98,10.0,West,3.5,-,N/A,,Overcast,270,2013-03-24 13:56:00
4:04 AM,73.4,68.0,83,29.96,10.0,Calm,Calm,-,N/A,,Overcast,0,2013-03-24 14:04:00
4:25 AM,73.4,64.4,73,29.96,10.0,ENE,4.6,-,N/A,,Overcast,60,2013-03-24 14:25:00
4:40 AM,71.6,68.0,88,29.97,10.0,Calm,Calm,-,N/A,,Overcast,0,2013-03-24 14:40:00
4:56 AM,72.0,64.9,78,29.98,10.0,Calm,Calm,-,N/A,,Overcast,0,2013-03-24 14:56:00
5:56 AM,71.1,66.0,84,29.99,10.0,Calm,Calm,-,0.00,,Overcast,0,2013-03-24 15:56:00
6:56 AM,72.0,66.0,81,30.01,10.0,SE,4.6,-,N/A,,Overcast,140,2013-03-24 16:56:00
7:56 AM,73.9,66.0,76,30.01,10.0,Calm,Calm,-,N/A,,Mostly Cloudy,0,2013-03-24 17:56:00
8:56 AM,75.0,66.9,76,30.03,10.0,West,4.6,-,N/A,,Overcast,260,2013-03-24 18:56:00
9:56 AM,75.9,69.1,79,30.05,10.0,SW,8.1,-,N/A,,Overcast,220,2013-03-24 19:56:00
10:56 AM,77.0,64.9,66,30.05,10.0,SSW,8.1,-,N/A,,Overcast,210,2013-03-24 20:56:00
11:56 AM,75.9,63.0,64,30.05,10.0,West,4.6,-,N/A,,Overcast,280,2013-03-24 21:56:00
12:56 PM,77.0,64.0,64,30.03,10.0,NNW,5.8,-,0.00,,Overcast,330,2013-03-24 22:56:00
1:56 PM,79.0,66.0,64,29.99,10.0,North,10.4,-,N/A,,Overcast,350,2013-03-24 23:56:00
2:56 PM,75.9,62.1,62,29.97,10.0,NW,6.9,-,N/A,,Overcast,310,2013-03-25 00:56:00
3:56 PM,75.9,62.1,62,29.95,10.0,SW,5.8,-,N/A,,Overcast,230,2013-03-25 01:56:00
4:56 PM,77.0,64.0,64,29.95,10.0,SSW,6.9,-,N/A,,Overcast,210,2013-03-25 02:56:00
5:56 PM,75.9,62.1,62,29.96,10.0,South,9.2,-,N/A,,Overcast,190,2013-03-25 03:56:00
6:56 PM,75.0,66.0,73,29.98,10.0,South,6.9,-,N/A,,Overcast,190,2013-03-25 04:56:00
7:56 PM,75.9,66.0,71,30.01,10.0,Calm,Calm,-,N/A,,Overcast,0,2013-03-25 05:56:00
8:56 PM,75.0,68.0,79,30.02,10.0,North,4.6,-,N/A,,Overcast,10,2013-03-25 06:56:00
9:56 PM,73.9,66.0,76,30.03,10.0,Calm,Calm,-,N/A,,Overcast,0,2013-03-25 07:56:00
10:56 PM,75.0,69.1,82,30.03,10.0,Calm,Calm,-,N/A,,Overcast,0,2013-03-25 08:56:00
11:56 PM,73.9,68.0,82,30.02,10.0,Calm,Calm,-,N/A,,Overcast,0,2013-03-25 09:56:00